sat.trackr.live / text

‹ back to catalog

KUIPER-00106

NORAD 65144 · 2025-171N

PAYLOAD ACTIVE UNKNOWN

§ Identity

Operator
Country
US
Launch date
2025-08-11
Launch site
AFETR
Launch vehicle
Mass (kg)
RCS (m²)

External: N2YO · Heavens-Above · Gunter

§ Orbital elements

Epoch: 2026-05-25T01:34:05.387232Z

Period
96.20 min
Inclination
51.8917°
Eccentricity
0.0008300
Mean motion
14.96889437 rev/d
Perigee alt
570.7 km
Apogee alt
582.3 km
Semi-major
6,954.7 km
B*
3.3126e-4
RAAN
167.8501°
Arg perigee
359.1480°
Mean anomaly
0.9474°
Rev number
4,438

§ Raw data

KUIPER-001061 65144U 25171N   26145.06534013  .00003586  00000+0  33126-3 0  99952 65144  51.8917 167.8501 0008300 359.1480   0.9474 14.96889437 44384

JSON: /api/v1/satellites/65144 · /tle

For live sub-satellite position, see the globe view (requires WebGL).

§ Visibility from observer

Set your observer location to see the next 7 days of passes ≥ 10°. The values pass through the URL so the page stays shareable.

No JS? Fill the form by hand. The geolocation button needs JavaScript.